Location: Bridalveil Moraine
(37.7171°N, 119.6568°W)
Time: 03:41:12
(UTC+00:00)

BlueWalker 3 - Pass Details

Date: 10 August 2024
Orbit: 476 x 487 km, 53.2° (Epoch: 11 September)

Event Time Altitude Azimuth Distance (km) Brightness Sun altitude
Exits shadow 11:31:47 - 307° (NW) 1,932 4.7 -18.0°
Reaches altitude 10° 11:33:13 10° 326° (NW) 1,686 4.6 -17.7°
Maximum altitude 11:34:20 11° 343° (NNW) 1,624 4.7 -17.6°
Drops below altitude 10° 11:35:27 10° 0° (N) 1,689 5.1 -17.4°
Sets 11:39:12 0° 38° (NE) 2,574 7.0 -16.8°
